• In Österreich
  • Länderverzeichnis
  • Für 7 Tage
  • Wassertemperatur
  • Satellitenkarten
  • Wetterkarte
  • News
  • Widgets
  • user-avatar
    Anmelden

    Stündliche Wetter Burgas

    Heute, 19 Juli, Donnerstag

    Zeit Temperatur Niederschläge Wind Luftdruck Luftfeuchtigkeit
    00:00 +21°C° 0 mm 5 m/S 751 mmHg 76%
    01:00 +21°C° 0 mm 5 m/S 751 mmHg 78%
    02:00 +20°C° 0 mm 5 m/S 751 mmHg 81%
    03:00 +20°C° 0 mm 5 m/S 751 mmHg 82%
    04:00 +20°C° 0 mm 5 m/S 751 mmHg 82%
    05:00 +19°C° 0 mm 5 m/S 751 mmHg 82%
    06:00 +21°C° 0 mm 5 m/S 751 mmHg 76%
    07:00 +23°C° 0 mm 6 m/S 751 mmHg 69%
    08:00 +26°C° 0 mm 6 m/S 751 mmHg 61%
    09:00 +27°C° 0 mm 6 m/S 751 mmHg 57%
    10:00 +28°C° 0 mm 5 m/S 752 mmHg 53%
    11:00 +30°C° 0 mm 5 m/S 752 mmHg 50%
    12:00 +30°C° 0,3 mm 5 m/S 752 mmHg 50%
    13:00 +30°C° 0,3 mm 4 m/S 752 mmHg 50%
    14:00 +32°C° 0,3 mm 4 m/S 752 mmHg 51%
    15:00 +30°C° 0,2 mm 4 m/S 752 mmHg 52%
    16:00 +30°C° 0,2 mm 4 m/S 752 mmHg 52%
    17:00 +30°C° 0,2 mm 4 m/S 752 mmHg 53%
    18:00 +28°C° 0,3 mm 3 m/S 752 mmHg 60%
    19:00 +26°C° 0,3 mm 3 m/S 752 mmHg 67%
    20:00 +25°C° 0,3 mm 3 m/S 752 mmHg 74%
    21:00 +24°C° 0,2 mm 3 m/S 752 mmHg 78%
    22:00 +24°C° 0,2 mm 3 m/S 753 mmHg 81%
    23:00 +22°C° 0,2 mm 4 m/S 753 mmHg 84%

    Morgen, 20 Juli, Freitag

    Zeit Temperatur Niederschläge Wind Luftdruck Luftfeuchtigkeit
    00:00 +22°C° 0,2 mm 4 m/S 753 mmHg 85%
    01:00 +21°C° 0,2 mm 4 m/S 753 mmHg 86%
    02:00 +21°C° 0,2 mm 4 m/S 753 mmHg 86%
    03:00 +21°C° 0,1 mm 4 m/S 753 mmHg 87%
    04:00 +21°C° 0,1 mm 4 m/S 753 mmHg 88%
    05:00 +20°C° 0,1 mm 4 m/S 753 mmHg 89%
    06:00 +22°C° 0 mm 4 m/S 754 mmHg 81%
    07:00 +25°C° 0 mm 4 m/S 754 mmHg 74%
    08:00 +27°C° 0 mm 4 m/S 754 mmHg 67%
    09:00 +29°C° 0 mm 4 m/S 754 mmHg 61%
    10:00 +30°C° 0 mm 4 m/S 754 mmHg 54%
    11:00 +33°C° 0 mm 4 m/S 754 mmHg 48%
    12:00 +33°C° 0,3 mm 3 m/S 754 mmHg 48%
    13:00 +34°C° 0,3 mm 3 m/S 754 mmHg 48%
    14:00 +34°C° 0,3 mm 3 m/S 754 mmHg 49%
    15:00 +32°C° 0,6 mm 2 m/S 754 mmHg 52%
    16:00 +32°C° 0,6 mm 2 m/S 754 mmHg 55%
    17:00 +31°C° 0,6 mm 2 m/S 754 mmHg 59%
    18:00 +30°C° 0,2 mm 2 m/S 754 mmHg 63%
    19:00 +28°C° 0,2 mm 2 m/S 754 mmHg 67%
    20:00 +27°C° 0,2 mm 1 m/S 754 mmHg 72%
    21:00 +26°C° 0 mm 2 m/S 754 mmHg 74%
    22:00 +26°C° 0 mm 2 m/S 755 mmHg 76%
    23:00 +25°C° 0 mm 2 m/S 755 mmHg 78%

    übermorgen, 21 Juli, Samstag

    Zeit Temperatur Niederschläge Wind Luftdruck Luftfeuchtigkeit
    00:00 +25°C° 0 mm 2 m/S 755 mmHg 78%
    01:00 +24°C° 0 mm 2 m/S 755 mmHg 79%
    02:00 +24°C° 0 mm 2 m/S 755 mmHg 79%
    03:00 +24°C° 0 mm 3 m/S 755 mmHg 79%
    04:00 +22°C° 0 mm 3 m/S 755 mmHg 80%
    05:00 +22°C° 0 mm 3 m/S 755 mmHg 81%
    06:00 +25°C° 0 mm 3 m/S 755 mmHg 73%
    07:00 +27°C° 0 mm 3 m/S 755 mmHg 65%
    08:00 +28°C° 0 mm 4 m/S 755 mmHg 58%
    09:00 +30°C° 0 mm 3 m/S 755 mmHg 53%
    10:00 +31°C° 0 mm 3 m/S 756 mmHg 48%
    11:00 +34°C° 0 mm 3 m/S 756 mmHg 42%
    12:00 +35°C° 0 mm 3 m/S 755 mmHg 40%
    13:00 +35°C° 0 mm 3 m/S 755 mmHg 39%
    14:00 +36°C° 0 mm 3 m/S 755 mmHg 37%
    15:00 +35°C° 0 mm 3 m/S 755 mmHg 39%
    16:00 +35°C° 0 mm 3 m/S 755 mmHg 41%
    17:00 +34°C° 0 mm 3 m/S 755 mmHg 43%
    18:00 +31°C° 0 mm 3 m/S 755 mmHg 51%
    19:00 +29°C° 0 mm 2 m/S 755 mmHg 60%
    20:00 +27°C° 0 mm 2 m/S 755 mmHg 68%
    21:00 +27°C° 0 mm 1 m/S 755 mmHg 72%
    22:00 +26°C° 0 mm 1 m/S 755 mmHg 76%
    23:00 +25°C° 0 mm 1 m/S 756 mmHg 79%

    22 Juli, Sonntag

    Zeit Temperatur Niederschläge Wind Luftdruck Luftfeuchtigkeit
    00:00 +25°C° 0 mm 1 m/S 756 mmHg 80%
    01:00 +25°C° 0 mm 1 m/S 755 mmHg 81%
    02:00 +24°C° 0 mm 1 m/S 755 mmHg 82%
    03:00 +24°C° 0 mm 1 m/S 755 mmHg 82%
    04:00 +24°C° 0 mm 1 m/S 755 mmHg 83%
    05:00 +24°C° 0 mm 1 m/S 755 mmHg 83%
    06:00 +26°C° 0 mm 1 m/S 755 mmHg 75%
    07:00 +28°C° 0 mm 1 m/S 755 mmHg 66%
    08:00 +30°C° 0 mm 1 m/S 755 mmHg 58%
    09:00 +32°C° 0 mm 1 m/S 755 mmHg 51%
    10:00 +33°C° 0 mm 1 m/S 755 mmHg 44%
    11:00 +35°C° 0 mm 1 m/S 755 mmHg 36%
    12:00 +36°C° 0 mm 2 m/S 755 mmHg 35%
    13:00 +37°C° 0 mm 3 m/S 755 mmHg 33%
    14:00 +37°C° 0 mm 3 m/S 754 mmHg 31%
    15:00 +37°C° 0 mm 4 m/S 754 mmHg 33%
    16:00 +37°C° 0 mm 4 m/S 754 mmHg 35%
    17:00 +36°C° 0 mm 4 m/S 754 mmHg 37%
    18:00 +34°C° 0 mm 4 m/S 754 mmHg 47%
    19:00 +30°C° 0 mm 4 m/S 754 mmHg 58%
    20:00 +28°C° 0 mm 3 m/S 754 mmHg 68%
    21:00 +27°C° 0 mm 3 m/S 754 mmHg 72%
    22:00 +26°C° 0 mm 3 m/S 754 mmHg 76%
    23:00 +26°C° 0 mm 3 m/S 754 mmHg 81%

    23 Juli, Montag

    Zeit Temperatur Niederschläge Wind Luftdruck Luftfeuchtigkeit
    00:00 +25°C° 0 mm 3 m/S 754 mmHg 81%
    01:00 +25°C° 0 mm 3 m/S 753 mmHg 81%
    02:00 +25°C° 0 mm 3 m/S 753 mmHg 82%
    03:00 +25°C° 0 mm 3 m/S 752 mmHg 82%
    04:00 +24°C° 0 mm 2 m/S 752 mmHg 82%
    05:00 +24°C° 0 mm 2 m/S 752 mmHg 83%
    06:00 +26°C° 0 mm 3 m/S 752 mmHg 74%
    07:00 +28°C° 0 mm 3 m/S 752 mmHg 65%
    08:00 +30°C° 0 mm 4 m/S 752 mmHg 56%
    09:00 +33°C° 0 mm 4 m/S 751 mmHg 48%
    10:00 +35°C° 0 mm 4 m/S 751 mmHg 40%
    11:00 +37°C° 0 mm 4 m/S 751 mmHg 32%
    12:00 +39°C° 0 mm 5 m/S 750 mmHg 30%
    13:00 +40°C° 0 mm 5 m/S 750 mmHg 27%
    14:00 +41°C° 0 mm 6 m/S 749 mmHg 25%
    15:00 +40°C° 0 mm 6 m/S 749 mmHg 28%
    16:00 +39°C° 0 mm 6 m/S 749 mmHg 31%
    17:00 +38°C° 0 mm 6 m/S 748 mmHg 34%
    18:00 +35°C° 0 mm 6 m/S 749 mmHg 41%
    19:00 +33°C° 0 mm 6 m/S 749 mmHg 47%
    20:00 +30°C° 0 mm 6 m/S 749 mmHg 54%
    21:00 +29°C° 0,8 mm 5 m/S 749 mmHg 61%
    22:00 +27°C° 0,8 mm 5 m/S 749 mmHg 69%
    23:00 +25°C° 0,8 mm 4 m/S 750 mmHg 76%

    24 Juli, Dienstag

    Zeit Temperatur Niederschläge Wind Luftdruck Luftfeuchtigkeit
    00:00 +25°C° 0,1 mm 3 m/S 750 mmHg 77%
    01:00 +24°C° 0,1 mm 3 m/S 750 mmHg 79%
    02:00 +24°C° 0,1 mm 2 m/S 750 mmHg 80%
    03:00 +24°C° 0,8 mm 2 m/S 750 mmHg 81%
    04:00 +22°C° 0,8 mm 3 m/S 750 mmHg 81%
    05:00 +22°C° 0,8 mm 3 m/S 750 mmHg 82%
    06:00 +24°C° 2,5 mm 3 m/S 750 mmHg 82%
    07:00 +23°C° 2,5 mm 4 m/S 751 mmHg 83%
    08:00 +23°C° 2,5 mm 5 m/S 751 mmHg 84%
    09:00 +26°C° 0,2 mm 4 m/S 752 mmHg 77%
    10:00 +27°C° 0,2 mm 4 m/S 752 mmHg 71%
    11:00 +29°C° 0,2 mm 4 m/S 752 mmHg 65%
    12:00 +30°C° 0 mm 5 m/S 752 mmHg 61%
    13:00 +32°C° 0 mm 5 m/S 752 mmHg 57%
    14:00 +33°C° 0 mm 5 m/S 752 mmHg 53%
    15:00 +32°C° 0,2 mm 5 m/S 752 mmHg 56%
    16:00 +30°C° 0,2 mm 5 m/S 752 mmHg 60%
    17:00 +30°C° 0,2 mm 5 m/S 752 mmHg 63%
    18:00 +28°C° 0 mm 5 m/S 752 mmHg 70%
    19:00 +27°C° 0 mm 4 m/S 752 mmHg 77%
    20:00 +26°C° 0 mm 4 m/S 752 mmHg 84%
    21:00 +25°C° 0 mm 4 m/S 753 mmHg 86%
    22:00 +23°C° 0 mm 4 m/S 753 mmHg 89%
    23:00 +23°C° 0 mm 4 m/S 753 mmHg 92%
    Mehr zeigen